FENGYUN 1C DEB, 30277

Orbit data source: Space-Track

FENGYUN 1C DEB, 30277 is space debris in SSO originally from a launch on Mon, 10 May 1999 UTC launched from the Taiyaun Space Center, China (TSC). Fengyun 1C debris stems from the Chinese weather satellite Fengyun-1C, which was intentionally destroyed by a Chinese anti-satellite missile in 2007. This event dramatically increased the amount of space debris, with thousands of trackable fragments posing hazards to satellites and human spaceflight. The Fengyun 1C debris cloud has become a focal point in discussions about space sustainability and the need for international regulations to prevent the creation of new debris.

Loading next visibility...
Identifier
30277, 1999-025YN
Orbit
SSO
Country
Flag of CNCN / PRC
Related business
Manufacturer
Unknown
Mission
Spacecraft
Bus & Motor
Unknown
Mass
Unknown
Launch date (UTC)
1999-05-10 (27 years ago)
Launch vehicle
Unknown
Launch site
Taiyaun Space Center, China (TSC)
Object type
Payload
Rocket body
Debris
Shape & HBR
Unknown shape, 0.1 m
Radar Cross Section
Medium (>0.1 m² and <1 m²)

Expand to show TLE details & history
Last TLE update: 2 days ago

TLE from 2 days ago
0 FENGYUN 1C DEB
1 30277U 99025YN  26235.15482187  .00001730  00000-0  85977-3 0  9998
2 30277  98.9553 311.6112 0122328 179.5734 212.0094 14.14585201  3685
Epoch: 2026-08-23T03:42Z
TLE epoch observation values (Epoch: 2026-08-23T03:42:56.609Z)
Latitude
30.48588°
Longitude
-80.87487°
Altitude
922.767 km
Speed
7.355 km/s
True Right ascension
20h 25m 15s
True Declination
30° 20' 21"
Sunlit
Object was in full shadow at epoch
Visualization orbit readout
Latitude
Unknown
Longitude
Unknown
Altitude
Unknown
Speed
Unknown
Apparent Right ascension
Unknown
Apparent Declination
Unknown
Sunlit
N/A
Visualization observer readout
Local Sidereal Time
18:20:39
Azimuth
Unknown
Elevation
Unknown
Doppler factor
Unknown
Orbital elements
Apogee altitude
929.21 km
Perigee altitude
752.592 km
Semi-major axis
7,219.038 km
Eccentricity
0.01223
Inclination
98.9553°
RAAN
311.6112°
Arg. of periapsis
179.5734°
True anomaly
211.27591°
Mean anomaly
212.0094°
Eccentric anomaly
211.64171°
Mean motion
3.53854 °/min
Orbital period
101.74 mins
BSTAR
0.00085977
Loading maneuver chart data...
Computing Atmospheric mass density...

Documentation

Showing up to 5 results
|